ISS (ZARYA)

Last updated on Thu Sep 10 2026 00:02:05 GMT+0000 (Coordinated Universal Time)

1 25544U 98067A 26252.43386541 .00007076 00000+0 13619-3 0 9993 2 25544 51.6299 243.1337 0004948 117.3535 242.7957 15.49058283584814
UTC large
Height (km)
Speed (km/s)
/
Latitude / Longitude
Inclination (degrees)
Orbital Period (minutes)
Azimuth
Elevation
Range (km)
Doppler Factor

Next 0 passes for location: London (51.5072 / 0.1276)

No passes found over London.
ISS (ZARYA)